Location: Unspecified
(43.4354°N, 0.0000°E)
Time: 07:30:27
(UTC+00:00)

Vanguard 2 Rocket - Pass Details

Date: 23 June 2019
Orbit: 554 x 3326 km, 32.9° (Epoch: 21 July)

Event Time Altitude Azimuth Distance (km) Brightness Sun altitude
Rises 19:30:58 0° 198° (SSW) 3,420 9.7 1.3°
Reaches altitude 10° 19:34:05 10° 177° (S) 2,816 9.1 0.8°
Maximum altitude 19:38:24 17° 138° (SE) 2,788 8.8 0.1°
Drops below altitude 10° 19:44:12 10° 102° (ESE) 3,978 9.6 -0.8°
Sets 19:49:55 0° 87° (E) 5,593 10.4 -1.6°
